TimeCST,TemperatureF,Dew PointF,Humidity,Sea Level PressureIn,VisibilityMPH,Wind Direction,Wind SpeedMPH,Gust SpeedMPH,PrecipitationIn,Events,Conditions,WindDirDegrees,DateUTC
12:55 AM,29.5,26.1,87,30.22,10.0,Calm,Calm,-,N/A,,Clear,0,2013-01-08 06:55:00
1:55 AM,27.9,25.0,89,30.21,10.0,Calm,Calm,-,N/A,,Clear,0,2013-01-08 07:55:00
2:55 AM,29.1,26.1,88,30.21,10.0,Calm,Calm,-,N/A,,Clear,0,2013-01-08 08:55:00
3:55 AM,30.2,26.8,87,30.20,10.0,Calm,Calm,-,N/A,,Clear,0,2013-01-08 09:55:00
4:55 AM,28.0,25.5,90,30.20,10.0,Calm,Calm,-,N/A,,Partly Cloudy,0,2013-01-08 10:55:00
5:55 AM,28.8,26.2,90,30.20,10.0,Calm,Calm,-,N/A,,Mostly Cloudy,0,2013-01-08 11:55:00
6:55 AM,30.2,27.5,90,30.22,10.0,Calm,Calm,-,N/A,,Mostly Cloudy,0,2013-01-08 12:55:00
7:55 AM,31.5,28.6,89,30.24,10.0,Calm,Calm,-,N/A,,Overcast,0,2013-01-08 13:55:00
8:55 AM,36.3,30.9,81,30.25,10.0,ENE,4.6,-,N/A,,Mostly Cloudy,70,2013-01-08 14:55:00
9:55 AM,41.0,31.5,69,30.25,10.0,East,4.6,-,N/A,,Scattered Clouds,90,2013-01-08 15:55:00
10:55 AM,44.6,32.7,63,30.24,10.0,East,3.5,-,N/A,,Unknown,90,2013-01-08 16:55:00
11:55 AM,47.3,34.0,60,30.20,10.0,Calm,Calm,-,N/A,,Partly Cloudy,0,2013-01-08 17:55:00
12:55 PM,51.8,36.0,55,30.18,10.0,Calm,Calm,-,N/A,,Mostly Cloudy,0,2013-01-08 18:55:00
1:55 PM,52.7,37.6,56,30.15,10.0,SSE,4.6,-,N/A,,Clear,160,2013-01-08 19:55:00
2:55 PM,53.2,38.3,57,30.15,10.0,ESE,4.6,-,N/A,,Mostly Cloudy,120,2013-01-08 20:55:00
3:55 PM,52.9,39.4,60,30.16,10.0,ENE,4.6,-,N/A,,Overcast,70,2013-01-08 21:55:00
4:43 PM,51.8,39.2,62,30.15,10.0,ENE,4.6,-,N/A,,Light Drizzle,70,2013-01-08 22:43:00
4:55 PM,51.6,39.7,64,30.15,10.0,ENE,5.8,-,0.00,Rain,Light Rain,70,2013-01-08 22:55:00
4:56 PM,51.8,41.0,67,30.15,10.0,NE,3.5,-,N/A,,Overcast,50,2013-01-08 22:56:00
4:59 PM,51.8,41.0,67,30.16,10.0,ENE,4.6,-,N/A,,Light Drizzle,60,2013-01-08 22:59:00
5:08 PM,50.0,41.0,71,30.14,10.0,East,4.6,-,N/A,,Overcast,80,2013-01-08 23:08:00
5:55 PM,50.4,39.7,67,30.14,10.0,East,5.8,-,0.00,,Overcast,90,2013-01-08 23:55:00
6:55 PM,49.6,39.4,68,30.15,10.0,East,4.6,-,N/A,,Mostly Cloudy,80,2013-01-09 00:55:00
7:50 PM,50.0,39.2,66,30.15,10.0,ENE,5.8,-,N/A,,Mostly Cloudy,60,2013-01-09 01:50:00
7:55 PM,50.0,39.2,66,30.15,10.0,ENE,5.8,-,N/A,,Mostly Cloudy,60,2013-01-09 01:55:00
8:55 PM,50.4,39.6,66,30.17,10.0,NNE,3.5,-,N/A,,Overcast,30,2013-01-09 02:55:00
9:43 PM,50.0,39.2,66,30.17,10.0,NNE,4.6,-,N/A,,Light Drizzle,20,2013-01-09 03:43:00
9:55 PM,50.5,39.7,66,30.18,10.0,NE,3.5,-,0.00,,Light Drizzle,50,2013-01-09 03:55:00
10:55 PM,49.6,41.7,74,30.21,10.0,Calm,Calm,-,0.00,Rain,Light Rain,0,2013-01-09 04:55:00
11:55 PM,48.7,43.2,81,30.22,10.0,NNE,3.5,-,0.02,Rain,Light Rain,20,2013-01-09 05:55:00